Home > Weather > Madagascar > Antananarivo > Past weeks

Flag for Madagascar Weather past 2 weeks in Antananarivo, Madagascar

61 °F

Passing clouds.

Feels Like: 61 °F
Forecast: 64 / 82 °F
Wind: No wind

Location: Antananarivo / Ivato

Current Time: Dec 2, 2015 at 4:57:36 AM

Latest Report: Dec 2, 2015 at 3:30 AM

Visibility: N/A

Pressure: 30.15 "Hg (25.90 "Hg at 1287m altitude)

Humidity: 100%

Dew point: 61 °F

Location of AntananarivoLocation

Historic Weather in Antananarivo — Graph


Antananarivo temperature yesterday

Maximum temperature yesterday: 82 °F (at 1:00 PM)
Minimum temperature yesterday: 63 °F (at 11:30 PM)
Average temperature yesterday: 70 °F

Past Weeks' High & Low Weather Summary

High90 °F (Nov 19, 1:30 PM)100% (Nov 17, 3:00 AM)30.27 "Hg (Nov 17, 3:00 AM)
Low57 °F (Nov 18, 4:30 AM)27% (Nov 19, 2:30 PM)29.95 "Hg (Nov 24, 2:00 PM)
Average72 °F86%30.11 "Hg
* Reported Nov 17 3:00 AM — Dec 2 3:30 AM, Antananarivo, Weather by CustomWeather, © 2015

Note: Actual official high and low records may vary slightly from our data, if they occured in-between our weather recording intervals... More about our weather records


Antananarivo weather history for previous 24 hours

Time TempWeatherWind HumidityBarometerVisibility
3:30 AM
Wed, Dec 2
61 °FPassing clouds.No wind100%30.15 "HgN/A
3:00 AM61 °FPassing clouds.No wind100%30.12 "HgN/A
2:30 AM61 °FPassing clouds.No wind100%30.12 "HgN/A
2:00 AM61 °FPassing clouds.No wind100%30.15 "HgN/A
1:20 AM63 °FMild.N/A100%30.15 "HgN/A
12:30 AM63 °FPassing clouds.No wind100%30.15 "HgN/A
11:30 PM
Tue, Dec 1
63 °FPassing clouds.5 mph100%30.18 "HgN/A
11:00 PM64 °FThunderstorms. Passing clouds.6 mph100%30.18 "HgN/A
10:30 PM64 °FThunderstorms. Partly cloudy.7 mph100%30.18 "HgN/A
10:00 PM64 °FThunderstorms. Partly cloudy.No wind100%30.18 "HgN/A
9:30 PM64 °FThunderstorms. Partly cloudy.7 mph100%30.18 "HgN/A
9:00 PM64 °FThunderstorms. Partly cloudy.9 mph100%30.18 "HgN/A
8:30 PM64 °FThunderstorms. Partly cloudy.10 mph100%30.18 "HgN/A
8:00 PM66 °FThunderstorms. Partly cloudy.13 mph100%30.18 "HgN/A
7:30 PM68 °FThunderstorms. Partly cloudy.10 mph100%30.18 "HgN/A
7:00 PM68 °FThunderstorms. Partly cloudy.8 mph100%30.15 "HgN/A
6:30 PM68 °FThunderstorms. Partly cloudy.9 mph100%30.12 "HgN/A
6:00 PM70 °FPartly sunny.12 mph94%30.09 "HgN/A
5:30 PM73 °FPartly sunny.9 mph89%30.09 "HgN/A
5:00 PM73 °FPartly sunny.10 mph89%30.09 "HgN/A
4:30 PM75 °FPartly sunny.6 mph78%30.07 "HgN/A
4:00 PM75 °FPartly sunny.8 mph78%30.07 "HgN/A
3:30 PM75 °FThunderstorms. Partly sunny.10 mph78%30.04 "HgN/A
3:00 PM77 °FPartly sunny.7 mph83%30.04 "HgN/A
2:30 PM77 °FPartly sunny.5 mph89%30.07 "HgN/A
2:00 PM73 °FPartly sunny.2 mph94%30.07 "Hg5 mi
1:48 PM72 °FThunderstorms. Partly sunny.8 mph100%30.09 "Hg4 mi
1:30 PM72 °FStrong thunderstorms. Partly sunny.17 mph83%30.09 "Hg2 mi
1:00 PM82 °FScattered clouds.6 mph66%30.09 "HgN/A
12:30 PM81 °FScattered clouds.No wind70%30.09 "HgN/A
12:00 PM81 °FPartly sunny.No wind70%30.12 "HgN/A
11:00 AM81 °FPartly sunny.No wind79%30.15 "HgN/A
10:30 AM79 °FPartly sunny.No wind84%30.15 "HgN/A
10:00 AM77 °FPartly sunny.No wind89%30.15 "HgN/A
9:00 AM73 °FPartly sunny.No wind89%30.18 "HgN/A
8:30 AM72 °FPartly sunny.No wind100%30.18 "HgN/A
8:00 AM72 °FPartly sunny.No wind94%30.18 "HgN/A
7:30 AM72 °FPartly sunny.No wind100%30.18 "HgN/A
7:00 AM70 °FPartly sunny.No wind100%30.15 "HgN/A
6:30 AM66 °FPartly sunny.No wind100%30.15 "HgN/A
6:00 AM64 °FPassing clouds.No wind100%30.15 "HgN/A
5:30 AM64 °FPassing clouds.No wind100%30.12 "HgN/A
Weather by CustomWeather, © 2015

See weather overviewHow to use our weather pages